This demonstration page uses our WeatherBlox Daily Observations layout. Learn more.

Left ArrowRight Arrow

Hourly Observations for February 3, 2017

Temp ( °F °C ) Dew Point ( °F °C ) Humidity (%) Winds ( mph kmh ) Pressure ( in mb ) Visibility ( mi km ) Precip ( " mm )
12:53 am 00:53 Clear 38 3.3 26 -3.3 62 62 ENE 7 11 30.17 1022 10 16 0.00 0.00
1:53 am 01:53 Clear 36 2.2 26 -3.3 67 67 ENE 7 11 30.17 1022 10 16 0.00 0.00
2:53 am 02:53 Clear 35 1.7 26 -3.3 70 70 NE 7 11 30.16 1021 10 16 0.00 0.00
3:53 am 03:53 Clear 34 1.1 26 -3.3 73 73 ENE 6 9 30.16 1021 10 16 0.00 0.00
4:53 am 04:53 Clear 34 1.1 26 -3.3 73 73 ENE 8 13 30.16 1022 10 16 0.00 0.00
5:53 am 05:53 Clear 33 0.6 25 -3.9 72 72 NE 6 9 30.19 1022 10 16 0.00 0.00
6:53 am 06:53 Clear 32 0 24 -4.4 73 73 ENE 5 7 30.23 1024 10 16 0.00 0.00
7:53 am 07:53 Sunny 31 -0.6 24 -4.4 76 76 ENE 6 9 30.26 1025 10 16 0.00 0.00
8:53 am 08:53 Sunny 35 1.7 25 -3.9 67 67 ENE 6 9 30.28 1026 10 16 0.00 0.00
9:53 am 09:53 Sunny 40 4.4 27 -2.8 60 60 E 14 22 30.31 1026 10 16 0.00 0.00
10:53 am 10:53 Sunny 44 6.7 29 -1.7 55 55 E 13 20 30.31 1026 10 16 0.00 0.00
11:53 am 11:53 Sunny 46 7.8 29 -1.7 51 51 E 15 24 30.30 1026 10 16 0.00 0.00
12:53 pm 12:53 Sunny 50 10 29 -1.7 44 44 ESE 13 20 30.27 1025 10 16 0.00 0.00
1:53 pm 13:53 Sunny 52 11.1 30 -1.1 43 43 E 13 20 30.24 1024 10 16 0.00 0.00
2:53 pm 14:53 Sunny 53 11.7 29 -1.7 40 40 ESE 14 22 30.21 1023 10 16 0.00 0.00
3:53 pm 15:53 Sunny 54 12.2 28 -2.2 37 37 E 15 24 30.20 1023 10 16 0.00 0.00
4:53 pm 16:53 Sunny 52 11.1 28 -2.2 40 40 E 14 22 30.20 1023 10 16 0.00 0.00
5:53 pm 17:53 Sunny 50 10 29 -1.7 44 44 E 12 19 30.22 1023 10 16 0.00 0.00
6:53 pm 18:53 Clear 45 7.2 29 -1.7 54 54 E 13 20 30.26 1025 10 16 0.00 0.00
7:53 pm 19:53 Clear 42 5.6 27 -2.8 55 55 E 12 19 30.29 1026 10 16 0.00 0.00
8:53 pm 20:53 Clear 39 3.9 27 -2.8 62 62 ENE 8 13 30.29 1026 10 16 0.00 0.00
9:53 pm 21:53 Clear 37 2.8 27 -2.8 67 67 ENE 6 9 30.29 1026 10 16 0.00 0.00
10:53 pm 22:53 Mostly Clear 35 1.7 27 -2.8 72 72 E 5 7 30.27 1025 10 16 0.00 0.00
11:53 pm 23:53 Clear 34 1.1 28 -2.2 79 79 E 5 7 30.25 1025 10 16 0.00 0.00

Powered by AerisWeather